Location: Newark
(33.4133°N, 82.3847°W)
Time: 05:40:59
(UTC+00:00)

Hubble Space Telescope - Visible Passes

Search period start: 26 January 2020 00:00
Search period end: 05 February 2020 00:00
Orbit: 536 x 540 km, 28.5° (Epoch: 25 January)

Date Brightness Start Highest point End Pass type
(mag) Time Alt. Az. Time Alt. Az. Time Alt. Az.
29 Jan 3.5 10:30:01 10° S 10:31:29 12° SSE 10:32:56 10° SE visible
30 Jan 3.2 10:20:06 14° SSE 10:20:46 15° SSE 10:23:02 10° ESE visible
30 Jan 2.3 11:57:44 10° SW 12:01:27 33° S 12:05:09 10° ESE visible
31 Jan 3.1 10:10:26 17° SSE 10:10:26 17° SSE 10:12:50 10° ESE visible
31 Jan 2.0 11:46:59 10° WSW 11:50:46 36° S 11:54:34 10° ESE visible
01 Feb 3.2 10:00:39 18° SE 10:00:39 18° SE 10:02:28 10° ESE visible
01 Feb 1.9 11:36:16 10° WSW 11:40:07 39° S 11:43:58 10° ESE visible
02 Feb 3.4 09:50:47 16° ESE 09:50:47 16° ESE 09:52:01 10° ESE visible
02 Feb 1.7 11:26:07 13° WSW 11:29:27 40° S 11:33:20 10° ESE visible
03 Feb 3.8 09:40:51 13° ESE 09:40:51 13° ESE 09:41:30 10° ESE visible
03 Feb 1.6 11:16:11 18° WSW 11:18:48 41° S 11:22:42 10° ESE visible
04 Feb 4.1 09:30:52 10° ESE 09:30:52 10° ESE 09:30:57 10° ESE visible
04 Feb 1.6 11:06:13 24° WSW 11:08:09 41° S 11:12:02 10° ESE visible
